Location: Vancouver
(49.2500°N, 123.1330°W)
Time: 13:26:44
(UTC-07:00)

Iridium 21 - Visible Passes

Search period start: 20 April 2018 00:00
Search period end: 30 April 2018 00:00
Orbit: 776 x 779 km, 86.4° (Epoch: 20 April)

Date Brightness Start Highest point End Pass type
(mag) Time Alt. Az. Time Alt. Az. Time Alt. Az.
20 Apr 7.5 04:17:36 10° NNE 04:22:08 29° ENE 04:26:38 10° SE visible
21 Apr 8.2 03:44:45 10° NNE 03:48:15 18° ENE 03:51:44 10° ESE visible
21 Apr 5.5 05:24:23 10° N 05:29:36 73° W 05:34:47 10° S visible
22 Apr 8.6 03:13:17 10° NE 03:14:14 10° ENE 03:15:12 10° ENE visible
22 Apr 6.0 04:50:50 10° N 04:56:03 66° E 05:01:15 10° SSE visible
23 Apr 6.9 04:17:29 10° N 04:22:23 39° ENE 04:27:16 10° SSE visible
24 Apr 7.8 03:44:24 10° NNE 03:48:36 24° ENE 03:52:46 10° SE visible
24 Apr 5.7 05:24:35 10° NNW 05:29:40 53° W 05:34:43 10° SSW visible
25 Apr 8.3 03:11:50 10° NNE 03:14:40 15° ENE 03:17:30 10° E visible
25 Apr 5.6 04:50:56 10° N 04:56:12 89° WSW 05:01:25 10° S visible
26 Apr 6.3 04:17:28 10° N 04:22:37 54° E 04:27:42 10° SSE visible
27 Apr 7.2 03:44:12 10° NNE 03:48:53 32° ENE 03:53:32 10° SE visible
28 Apr 8.0 03:11:16 10° NNE 03:15:02 20° ENE 03:18:47 10° ESE visible
28 Apr 5.6 04:51:06 10° N 04:56:17 66° W 05:01:27 10° S visible
29 Apr 8.3 02:39:11 10° NE 02:41:03 12° ENE 02:42:56 10° E visible
29 Apr 5.7 04:17:31 10° N 04:22:47 74° E 04:27:59 10° S visible
